Regional Weather Roundup
Issued by NWS Cleveland, OH

Home | Current Version | Previous Version | Text Only | Print | Product List | Glossary Off
Versions: 1 2 3 4 5 6 7 8 9 10 11 12 13 14 15 16 17 18 19 20 21 22 23 24 25 26 27 28 29 30 31 32 33 34 35 36 37 38 39 40 41 42 43 44 45 46 47 48 49 50

000
ASUS41 KCLE 030612
RWRCLE
OHIO REGIONAL WEATHER ROUNDUP
NATIONAL WEATHER SERVICE WILMINGTON, OH
100 AM EST SAT DEC 03 2016

NOTE: "FAIR" INDICATES FEW OR NO CLOUDS BELOW 12,000 FEET WITH NO
SIGNIFICANT WEATHER AND/OR OBSTRUCTIONS TO VISIBILITY.

OHZ001>008-015>018-024>027-034-035-043-044-030700-
   NORTHWEST OHIO

CITY           SKY/WX    TMP DP  RH WIND       PRES   REMARKS
DEFIANCE       CLOUDY    35  27  72 SW3       30.29R
FINDLAY        FAIR      30  24  78 W7        30.27R WCI  23
TOLEDO EXPRESS CLOUDY    36  30  79 W5        30.27R
TOLEDO EXEC    CLOUDY    37  29  72 N7        30.27S
LIMA           CLOUDY    36  28  73 W8        30.27S
$$

OHZ009>014-019>023-028>033-038-089-030700-
   NORTHEAST OHIO

CITY           SKY/WX    TMP DP  RH WIND       PRES   REMARKS
CLE-HOPKINS    CLOUDY    38  28  67 W13       30.25F
CLE-LAKEFRONT  CLOUDY    39  30  70 W16       30.22F
CUY CO. ARPT   NOT AVBL
LORAIN-ELYRIA  CLOUDY    36  26  67 NW14      30.25S
ASHTABULA      CLOUDY    38  32  79 W9G20     30.18S
AKRON-CANTON   CLOUDY    36  28  73 W12       30.22S
WOOSTER        CLOUDY    34  29  82 NW8       30.23  WCI  27
MANSFIELD      CLOUDY    34  29  82 W7        30.23F WCI  28
YOUNGSTOWN     CLOUDY    36  29  75 W12G24    30.19R
$$

OHZ042-051>053-060>062-070>072-077>081-030700-
  SOUTHWEST OHIO

CITY           SKY/WX    TMP DP  RH WIND       PRES   REMARKS
CINC-COVINGTON CLOUDY    37  34  89 NW7       30.31S
CINC-LUNKEN    CLOUDY    38  36  92 CALM      30.34F
HAMILTON       CLOUDY    38  34  85 CALM      30.33S
DAYTON         CLOUDY    36  30  79 W5        30.29F
WRIGHT-PAT AFB CLOUDY    37  31  77 W3        30.29S
DAYTON GENERAL CLOUDY    37  30  75 W3        30.29F
WILMINGTON     CLOUDY    36  31  82 W6        30.29S
$$

OHZ036-037-039>041-045>050-054>059-063>069-073>076-082>088-030700-
  CENTRAL AND SOUTHEAST OHIO

CITY           SKY/WX    TMP DP  RH WIND       PRES   REMARKS
COLUMBUS       NOT AVBL
OSU AIRPORT    CLOUDY    37  31  78 NW6       30.28S
BOLTON FIELD   NOT AVBL
RICKENBACK AFB CLOUDY    37  32  82 NW6       30.28S
NEWARK         CLOUDY    37  26  64 NW9       30.27S
MARION         FAIR      31  26  82 W6        30.27S WCI  25
LANCASTER      CLOUDY    37  32  82 W5        30.29R
ZANESVILLE     CLOUDY    38  30  73 NW9       30.26S
NEW PHILLY     FAIR      34  29  82 NW3       30.25S
$$



USA.gov is the U.S. government's official web portal to all federal, state and local government web resources and services.